Weather History for KCNU - July, 2013

Change the Weather History Date:

Friday, July 5, 2013

  Actual Average Record
Temperature  
Mean Temperature 77 °F 79 °F  
Max Temperature 91 °F 89 °F 106 °F (1911)
Min Temperature 62 °F 69 °F 50 °F (1972)
Degree Days  
Heating Degree Days 0 0  
Month to date heating degree days 0 0  
Since 1 June heating degree days 10 6  
Since 1 July heating degree days 0 0  
Cooling Degree Days 12 14  
Month to date cooling degree days 35 68  
Year to date cooling degree days 472 493  
Since 1 June cooling degree days 349 360  
Growing Degree Days 26 (Base 50)    
Moisture  
Dew Point 60 °F    
Average Humidity 59    
Maximum Humidity 84    
Minimum Humidity 34    
Precipitation  
Precipitation 0.00 in 0.15 in 3.45 in (1992)
Month to date precipitation 0.00 0.79  
Year to date precipitation 21.84 23.22  
Sea Level Pressure  
Sea Level Pressure 29.94 in    
Wind  
Wind Speed 9 mph (SSE)    
Max Wind Speed 17 mph    
Max Gust Speed 22 mph    
Visibility 10 miles    
Events      
T = Trace of Precipitation, MM = Missing Value Source: NWS Daily Summary

Daily Weather History Graph

Daily Weather History Graph

Search for Another Location

Airport or City:

Trip Planner

Search our weather history database for the weather conditions in past years. The results will help you decide how hot, cold, wet, or windy it might be!

Date:

Astronomy

Jul. 05, 2013 Rise Set
Actual Time 6:06 AM CDT 8:46 PM CDT
Civil Twilight 5:35 AM CDT 9:17 PM CDT
Nautical Twilight 4:56 AM CDT 9:56 PM CDT
Astronomical Twilight 4:13 AM CDT 10:39 PM CDT
Moon 4:05 AM CDT (7/5) 6:43 PM CDT (7/5)
Length of Visible Light 15h 42m
Length of Day
14h 40m
Waning Crescent, 6% of the Moon is Illuminated
Jul 5
Waning Crescent
Jul 8
New
Jul 15
First Quarter
Jul 22
Full
Jul 29
Last Quarter

Hourly Weather History & Observations

Time (CDT) Temp. Heat Index Dew Point Humidity Pressure Visibility Wind Dir Wind Speed Gust Speed Precip Events Conditions
12:52 AM 71.1 °F - 59.0 °F 66% 29.96 in 10.0 mi SE 8.1 mph - N/A   Clear
1:52 AM 68.0 °F - 57.9 °F 70% 29.95 in 10.0 mi SE 5.8 mph - N/A   Clear
2:52 AM 66.9 °F - 57.9 °F 73% 29.95 in 10.0 mi SE 6.9 mph - N/A   Clear
3:52 AM 64.0 °F - 57.9 °F 80% 29.95 in 10.0 mi SE 5.8 mph - N/A   Clear
4:52 AM 63.0 °F - 57.9 °F 84% 29.96 in 10.0 mi SE 6.9 mph - N/A   Clear
5:52 AM 62.1 °F - 57.0 °F 84% 29.96 in 9.0 mi SE 6.9 mph - N/A   Clear
6:52 AM 64.0 °F - 59.0 °F 84% 29.97 in 8.0 mi SE 8.1 mph - N/A   Clear
7:52 AM 66.9 °F - 60.1 °F 79% 29.98 in 7.0 mi SE 8.1 mph - N/A   Clear
8:52 AM 73.9 °F - 60.1 °F 62% 29.99 in 8.0 mi South 10.4 mph - N/A   Clear
9:52 AM 79.0 °F - 62.1 °F 56% 29.97 in 10.0 mi SSE 8.1 mph - N/A   Clear
10:52 AM 82.0 °F 82.7 °F 61.0 °F 49% 29.97 in 10.0 mi South 10.4 mph - N/A   Clear
11:52 AM 84.9 °F 85.0 °F 61.0 °F 44% 29.97 in 10.0 mi South 9.2 mph - N/A   Clear
12:52 PM 87.1 °F 87.0 °F 61.0 °F 41% 29.95 in 10.0 mi SSW 11.5 mph - N/A   Clear
1:52 PM 88.0 °F 87.9 °F 61.0 °F 40% 29.94 in 10.0 mi South 12.7 mph 20.7 mph N/A   Clear
2:52 PM 90.0 °F 88.6 °F 57.0 °F 33% 29.92 in 10.0 mi South 13.8 mph 18.4 mph N/A   Clear
3:52 PM 91.0 °F 90.2 °F 59.0 °F 34% 29.92 in 10.0 mi SSW 17.3 mph 20.7 mph N/A   Clear
4:52 PM 90.0 °F 89.7 °F 60.1 °F 37% 29.90 in 10.0 mi South 13.8 mph 19.6 mph N/A   Clear
5:52 PM 89.1 °F 88.2 °F 59.0 °F 36% 29.88 in 10.0 mi South 11.5 mph - N/A   Clear
6:52 PM 88.0 °F 86.7 °F 57.0 °F 35% 29.88 in 10.0 mi South 11.5 mph - N/A   Clear
7:52 PM 82.9 °F 82.8 °F 59.0 °F 44% 29.88 in 10.0 mi SSE 6.9 mph - N/A   Clear
8:52 PM 79.0 °F - 62.1 °F 56% 29.88 in 10.0 mi SSE 5.8 mph - N/A   Clear
9:52 PM 75.9 °F - 62.1 °F 62% 29.90 in 10.0 mi SSE 5.8 mph - N/A   Clear
10:52 PM 73.0 °F - 61.0 °F 66% 29.92 in 10.0 mi SSE 6.9 mph - N/A   Clear
11:52 PM 72.0 °F - 61.0 °F 68% 29.91 in 10.0 mi SSE 6.9 mph - N/A   Clear